Wind_Speed
44 43 43 44 43 42 40 37 34 34 36 38 39 39 40 42 41 40 40 38 36 35 34 33 31 30 29 29 29 29 30 30 29 27 26 27 26 26 26 26 25 26
44 42 42 44 43 41 39 35 33 32 34 36 37 38 40 42 42 42 42 41 38 36 34 33 32 31 30 29 29 30 30 30 30 29 28 28 27 27 26 26 25 25
44 43 42 42 41 38 35 32 31 31 32 33 34 36 39 41 43 43 43 43 41 38 36 34 34 32 31 30 30 30 31 31 30 29 29 28 28 28 26 25 25 26
44 43 41 40 37 36 34 30 28 29 30 32 32 33 36 40 43 44 44 45 44 41 38 37 36 35 33 32 31 31 31 31 30 30 30 29 29 28 27 26 26 26
44 43 41 39 37 37 36 32 28 28 29 31 32 33 34 37 42 44 45 46 46 43 41 39 38 37 36 34 33 33 33 33 32 31 31 30 29 29 28 27 27 27
45 44 42 42 40 38 38 37 32 28 27 29 32 35 36 38 41 44 45 46 47 45 43 41 40 40 39 38 36 35 35 34 33 32 32 31 30 30 29 29 29 28
45 45 44 44 43 41 41 41 36 31 31 33 34 37 39 40 42 44 45 45 47 47 44 42 42 42 41 41 39 38 37 36 35 34 34 33 31 31 30 30 30 30
44 45 46 46 45 43 44 44 41 40 41 41 39 39 42 43 43 45 46 46 47 48 45 42 42 43 43 43 42 40 39 39 38 37 36 34 33 33 32 31 31 31
44 44 46 47 47 45 45 45 44 45 48 47 46 44 45 45 45 45 46 47 47 49 48 44 42 42 43 43 44 42 41 40 40 38 37 36 35 34 33 33 32 32
44 44 45 47 47 47 47 46 45 45 48 51 52 49 47 47 46 46 46 47 47 49 51 48 44 41 41 42 43 43 42 41 41 40 39 37 36 35 34 34 33 32
44 43 44 46 47 47 48 47 46 43 46 53 55 52 49 48 46 46 47 48 48 49 50 50 47 42 39 39 41 43 42 42 43 42 41 39 37 36 35 35 34 33
44 44 44 44 45 45 46 47 46 44 48 54 54 51 50 48 46 46 47 48 49 49 50 51 49 44 40 38 39 41 42 42 43 43 42 40 38 37 36 35 35 34
45 44 42 43 44 43 44 47 48 49 50 51 50 50 49 47 46 46 47 48 49 50 50 50 50 47 43 39 38 40 41 42 42 44 44 42 40 38 37 36 36 34
43 42 41 41 43 43 45 48 50 49 48 48 49 49 48 47 47 47 47 48 50 50 50 50 51 49 46 42 40 40 41 41 41 42 44 44 42 40 38 37 36 35
41 41 41 41 43 45 47 49 50 49 49 50 50 50 49 49 48 48 48 49 50 51 51 51 52 51 48 45 43 41 40 40 40 41 42 44 43 42 40 38 37 36
42 42 41 42 44 47 49 50 51 50 51 52 52 51 50 50 49 49 49 50 50 51 51 52 52 52 50 46 44 42 40 39 40 40 40 41 42 42 41 40 38 37
42 42 42 42 43 45 49 51 51 51 51 53 53 52 51 50 49 50 50 51 51 52 52 52 52 51 50 48 44 42 40 39 39 39 39 40 41 41 41 40 39 38
43 42 42 43 43 44 47 49 51 52 52 53 54 53 52 51 51 51 52 52 52 53 53 53 52 50 50 48 45 42 41 39 38 38 38 38 39 40 40 40 39 38
45 45 45 45 44 43 44 47 50 52 53 54 55 54 53 53 53 53 53 52 53 53 54 53 53 51 50 48 46 43 41 40 38 37 37 37 38 38 38 39 39 38
45 46 47 48 47 46 46 47 50 52 54 54 55 54 54 54 55 54 53 53 54 53 53 54 53 53 51 48 46 44 42 40 38 37 35 35 36 36 36 36 37 38
45 45 44 44 45 47 49 50 50 51 52 54 54 55 55 55 56 55 54 54 54 54 54 54 54 53 52 49 47 45 42 40 39 39 37 34 33 34 34 33 34 35
37 42 44 44 41 39 43 49 51 51 51 53 54 54 55 56 56 55 54 54 54 54 54 54 53 53 52 50 48 45 43 40 40 40 40 38 35 34 35 34 32 32
24 30 38 44 45 41 38 41 47 50 51 51 53 54 55 55 56 55 54 54 54 54 54 54 53 53 52 50 48 46 43 42 41 41 42 42 39 37 37 37 35 32
22 22 26 32 39 43 44 43 44 47 50 51 53 54 55 55 56 56 54 54 54 54 54 54 53 52 52 51 48 47 45 43 42 42 43 44 43 41 40 40 38 35
27 25 24 26 29 34 41 45 45 45 48 51 52 53 54 55 55 56 55 54 54 54 54 54 54 53 53 52 50 48 46 44 42 43 44 45 45 44 43 42 41 39
30 28 27 27 28 29 33 39 42 42 44 48 51 53 53 54 54 54 55 54 54 54 54 54 54 54 54 54 52 50 47 45 43 43 45 46 46 45 45 44 42 41
Wind_Direction
218 217 219 222 224 226 226 225 224 223 223 222 223 226 230 233 234 232 228 223 219 219 223 227 228 225 222 223 225 228 231 234 236 239 241 242 243 244 244 245 246 245
218 217 219 221 223 226 225 224 225 225 224 224 225 228 231 235 237 234 231 227 224 222 223 226 229 228 225 223 224 227 230 233 235 237 240 240 242 243 244 246 246 245
219 218 219 221 222 223 221 222 228 231 230 228 228 230 233 236 238 237 233 230 228 226 225 227 229 230 229 226 225 227 229 232 234 236 238 239 240 241 243 245 245 245
219 219 219 219 219 217 214 219 229 235 237 235 232 233 236 238 239 239 236 232 230 229 228 229 230 232 233 231 228 228 230 232 234 236 238 239 239 240 242 243 243 243
221 219 218 217 214 211 212 219 228 234 238 239 239 240 241 241 240 239 238 235 231 230 230 230 231 233 234 234 233 231 230 231 233 235 237 239 240 241 242 241 241 242
222 220 218 216 213 211 215 222 227 230 238 244 245 245 246 245 243 241 240 237 233 230 231 231 232 234 235 236 236 235 233 231 232 234 237 239 241 242 243 242 241 241
224 222 220 217 215 215 218 224 229 234 242 250 251 248 246 246 245 243 241 239 235 232 231 232 232 234 236 236 237 237 235 233 232 233 236 239 240 242 242 242 241 241
227 226 224 221 219 220 220 223 230 232 235 245 253 249 246 245 244 244 243 240 237 234 232 232 232 234 236 237 238 238 236 234 232 233 235 237 239 241 242 242 241 241
228 229 228 226 224 224 225 225 226 224 224 236 249 249 244 243 243 243 243 241 239 235 233 232 232 233 235 237 239 238 236 234 233 233 234 235 238 241 243 243 243 243
228 229 230 229 228 228 228 225 222 220 219 229 242 245 241 240 240 241 242 241 239 236 234 233 232 231 233 236 238 239 238 235 234 234 234 235 237 240 242 244 245 246
228 229 230 230 230 229 227 223 221 219 217 226 238 241 237 236 237 239 240 239 238 236 233 233 232 232 232 235 238 239 238 237 235 235 235 235 237 240 242 244 245 247
228 229 230 230 230 229 226 221 220 220 220 227 236 236 234 234 235 236 238 238 238 236 233 233 233 233 233 234 237 239 239 237 235 235 235 236 237 239 241 243 245 247
229 230 230 230 230 229 227 222 220 221 225 230 233 232 232 233 233 235 237 238 238 237 234 233 234 235 235 235 237 239 239 237 235 235 235 236 237 239 240 243 245 247
232 233 233 233 231 229 230 227 224 225 229 232 233 232 233 233 233 234 235 237 238 237 236 235 235 236 237 236 237 238 239 238 236 235 235 236 237 238 240 242 245 247
233 236 236 236 234 231 229 229 228 229 230 232 233 232 233 233 233 234 235 236 237 237 236 236 235 237 238 238 238 237 238 239 238 237 237 236 237 238 239 241 243 246
232 235 236 236 235 233 230 229 229 229 230 232 232 232 233 233 232 234 235 236 237 237 236 236 236 238 240 240 240 239 239 239 240 239 239 238 238 239 239 239 241 244
232 234 235 235 235 234 233 231 231 230 230 230 231 231 232 232 232 233 234 236 237 237 236 236 238 240 241 240 240 240 240 240 241 241 241 240 241 240 239 239 241 243
234 234 234 234 235 235 234 233 232 230 230 230 230 231 231 232 232 233 234 236 237 237 237 237 240 242 242 241 241 241 240 240 240 241 241 242 242 242 241 240 241 243
236 235 234 234 235 235 234 234 232 230 230 230 230 230 230 231 232 233 234 236 236 236 237 239 241 242 243 243 243 242 241 240 239 239 241 244 244 243 243 242 242 243
236 234 233 235 237 237 235 234 232 231 231 231 230 230 229 230 231 231 233 235 235 236 238 241 242 243 243 244 244 243 242 240 239 238 240 244 246 245 244 245 245 244
238 236 233 232 234 235 234 233 233 232 231 230 230 229 229 229 230 231 232 234 235 237 238 241 243 243 243 244 244 244 243 241 240 239 239 241 245 248 247 247 249 248
245 243 243 241 239 238 236 233 233 233 233 231 230 230 229 230 230 231 232 234 235 236 237 240 243 244 244 244 244 244 242 241 240 240 240 239 241 247 249 248 248 249
256 251 250 249 248 247 246 240 235 234 234 232 230 229 229 229 230 231 233 235 235 235 236 240 244 244 244 244 244 243 241 240 239 240 241 242 241 244 248 249 248 248
264 262 259 255 251 248 248 247 242 237 236 234 231 230 230 230 230 231 233 234 235 235 237 240 243 244 244 243 243 242 241 241 240 240 241 243 242 243 246 249 249 248
264 267 266 264 261 253 249 249 247 244 241 237 233 231 231 231 231 232 233 234 235 237 238 240 242 244 244 243 243 242 241 240 240 241 241 242 242 242 243 247 249 249
261 266 266 264 264 264 259 255 251 248 246 242 238 234 233 232 232 232 233 235 236 237 238 239 241 243 244 244 243 242 241 239 238 240 242 242 241 241 242 244 246 248
Height
1479 1482 1485 1487 1490 1493 1496 1498 1499 1501 1503 1505 1506 1509 1511 1514 1517 1519 1519 1520 1521 1522 1523 1524 1526 1528 1530 1531 1532 1533 1534 1535 1536 1537 1537 1537 1538 1538 1538 1539 1539 1539
1476 1479 1482 1484 1487 1490 1492 1495 1497 1498 1500 1501 1504 1506 1509 1512 1515 1516 1517 1518 1519 1520 1521 1522 1523 1525 1527 1529 1530 1530 1531 1532 1533 1534 1535 1535 1535 1536 1536 1536 1537 1537
1472 1475 1478 1480 1483 1486 1489 1491 1493 1495 1497 1499 1501 1504 1507 1509 1512 1514 1515 1516 1517 1518 1519 1520 1521 1522 1524 1526 1527 1528 1529 1530 1531 1532 1532 1533 1533 1533 1534 1534 1534 1535
1468 1471 1474 1476 1479 1482 1485 1487 1488 1491 1493 1495 1497 1500 1504 1507 1509 1511 1513 1514 1515 1515 1516 1518 1519 1520 1521 1523 1524 1525 1526 1527 1528 1530 1530 1530 1531 1531 1532 1532 1532 1532
1464 1467 1470 1473 1475 1478 1481 1482 1484 1486 1488 1491 1494 1497 1500 1503 1505 1508 1510 1511 1512 1512 1513 1515 1516 1517 1518 1520 1521 1522 1523 1524 1526 1527 1527 1528 1528 1529 1529 1530 1530 1530
1460 1463 1466 1469 1471 1473 1475 1478 1480 1480 1483 1486 1490 1493 1496 1499 1502 1504 1506 1507 1508 1510 1510 1511 1512 1514 1515 1516 1517 1518 1520 1521 1523 1524 1524 1524 1525 1526 1527 1527 1527 1527
1457 1459 1462 1464 1466 1468 1470 1473 1475 1475 1478 1482 1486 1489 1492 1495 1497 1500 1502 1504 1505 1506 1507 1508 1509 1510 1511 1513 1514 1515 1516 1517 1519 1521 1521 1521 1522 1523 1523 1524 1524 1524
1453 1456 1458 1460 1462 1464 1465 1469 1472 1474 1476 1479 1481 1485 1488 1490 1493 1495 1498 1500 1502 1503 1504 1504 1505 1507 1508 1509 1509 1511 1512 1513 1515 1516 1517 1518 1519 1519 1520 1521 1521 1522
1450 1452 1455 1457 1459 1461 1462 1466 1469 1472 1475 1476 1478 1481 1484 1486 1488 1491 1494 1496 1499 1501 1502 1502 1502 1503 1504 1504 1505 1506 1508 1509 1511 1512 1513 1514 1515 1515 1517 1518 1518 1519
1447 1449 1452 1453 1456 1458 1459 1463 1466 1468 1472 1474 1475 1477 1480 1482 1484 1487 1490 1493 1495 1497 1499 1499 1498 1499 1500 1500 1501 1502 1504 1505 1507 1508 1509 1510 1511 1512 1513 1514 1515 1515
1444 1446 1448 1450 1452 1455 1456 1459 1462 1464 1468 1470 1470 1472 1475 1477 1480 1483 1486 1488 1490 1492 1494 1496 1495 1495 1496 1496 1496 1498 1500 1501 1503 1504 1506 1507 1508 1509 1510 1511 1512 1512
1441 1442 1444 1446 1448 1451 1453 1456 1459 1460 1463 1464 1465 1467 1470 1473 1476 1478 1481 1483 1485 1487 1490 1492 1493 1492 1492 1492 1493 1494 1495 1498 1499 1501 1502 1503 1504 1506 1507 1508 1509 1510
1438 1439 1441 1443 1445 1447 1450 1453 1454 1456 1457 1459 1461 1464 1466 1469 1471 1474 1476 1478 1481 1483 1486 1488 1489 1489 1489 1489 1490 1490 1491 1493 1495 1497 1498 1499 1500 1502 1503 1505 1506 1507
1435 1437 1439 1441 1442 1445 1447 1449 1450 1452 1453 1456 1459 1461 1462 1465 1467 1469 1472 1475 1477 1479 1482 1484 1486 1486 1485 1485 1485 1486 1487 1489 1491 1493 1494 1495 1497 1498 1500 1501 1502 1503
1432 1434 1436 1438 1440 1442 1443 1445 1447 1449 1451 1453 1455 1456 1458 1461 1463 1466 1469 1471 1473 1475 1477 1480 1481 1481 1480 1480 1480 1482 1483 1485 1487 1489 1490 1491 1493 1494 1496 1497 1498 1499
1429 1431 1433 1435 1437 1438 1439 1441 1443 1445 1448 1450 1451 1452 1454 1456 1459 1462 1465 1466 1468 1470 1473 1474 1475 1475 1475 1475 1476 1478 1480 1482 1483 1485 1486 1488 1489 1491 1492 1493 1494 1496
1425 1427 1429 1430 1432 1433 1435 1437 1439 1441 1444 1445 1447 1448 1450 1452 1455 1458 1459 1461 1463 1465 1467 1469 1469 1469 1470 1471 1473 1474 1476 1478 1480 1481 1483 1484 1485 1486 1488 1489 1491 1492
1421 1422 1424 1425 1427 1429 1430 1432 1435 1437 1439 1441 1442 1444 1446 1448 1450 1452 1454 1456 1458 1460 1462 1463 1463 1465 1466 1468 1469 1470 1472 1474 1477 1478 1479 1481 1482 1483 1484 1486 1487 1489
1417 1418 1419 1420 1422 1424 1426 1428 1430 1432 1433 1435 1437 1439 1441 1443 1445 1446 1449 1451 1453 1455 1456 1457 1458 1460 1463 1464 1465 1466 1469 1471 1473 1475 1476 1477 1478 1479 1481 1482 1484 1486
1413 1414 1414 1416 1417 1419 1421 1422 1424 1426 1427 1430 1432 1434 1437 1438 1440 1442 1444 1446 1448 1449 1451 1452 1453 1455 1458 1460 1461 1463 1465 1467 1470 1471 1473 1474 1474 1475 1477 1479 1480 1482
1410 1411 1412 1413 1414 1416 1417 1418 1419 1421 1423 1425 1427 1429 1431 1433 1434 1436 1439 1441 1443 1445 1446 1448 1449 1451 1453 1455 1457 1459 1462 1465 1466 1468 1469 1470 1471 1472 1473 1475 1477 1479
1408 1409 1411 1412 1413 1415 1415 1416 1416 1417 1419 1421 1423 1424 1426 1428 1430 1432 1434 1436 1438 1440 1442 1443 1444 1446 1449 1451 1453 1456 1459 1461 1463 1464 1465 1466 1467 1468 1469 1471 1473 1475
1404 1406 1407 1408 1411 1413 1415 1416 1416 1416 1416 1417 1419 1420 1422 1424 1425 1427 1429 1431 1433 1435 1437 1438 1440 1442 1444 1446 1449 1452 1455 1457 1459 1460 1461 1461 1463 1465 1466 1467 1469 1471
1401 1402 1403 1404 1407 1409 1412 1413 1414 1416 1416 1415 1415 1416 1417 1419 1420 1422 1424 1425 1427 1430 1432 1434 1436 1438 1440 1442 1444 1447 1450 1452 1454 1456 1457 1457 1459 1461 1462 1463 1465 1467
1398 1398 1399 1401 1403 1405 1406 1407 1409 1412 1415 1414 1413 1412 1413 1415 1417 1418 1419 1420 1422 1424 1427 1429 1432 1434 1435 1437 1439 1442 1444 1447 1450 1451 1452 1453 1454 1457 1458 1460 1462 1464
1394 1395 1395 1396 1398 1399 1401 1402 1403 1406 1409 1412 1412 1410 1409 1410 1412 1414 1415 1416 1418 1420 1422 1425 1427 1429 1431 1432 1434 1437 1439 1441 1444 1445 1446 1447 1449 1452 1454 1456 1457 1459